Year,Month,Day,Hour,Minute,Value (Times are PST for temperature in C)
2012,04,07,00,00,4.40
2012,04,07,00,01,4.40
2012,04,07,00,02,4.40
2012,04,07,00,03,4.30
2012,04,07,00,04,4.30
2012,04,07,00,05,4.30
2012,04,07,00,06,4.30
2012,04,07,00,07,4.30
2012,04,07,00,08,4.30
2012,04,07,00,09,4.30
2012,04,07,00,10,4.30
2012,04,07,00,11,4.30
2012,04,07,00,12,4.30
2012,04,07,00,13,4.30
2012,04,07,00,14,4.20
2012,04,07,00,15,4.20
2012,04,07,00,16,4.20
2012,04,07,00,17,4.20
2012,04,07,00,18,4.20
2012,04,07,00,19,4.20
2012,04,07,00,20,4.20
2012,04,07,00,21,4.20
2012,04,07,00,22,4.20
2012,04,07,00,23,4.20
2012,04,07,00,24,4.20
2012,04,07,00,25,4.10
2012,04,07,00,26,4.10
2012,04,07,00,27,4.10
2012,04,07,00,28,4.10
2012,04,07,00,29,4.10
2012,04,07,00,30,4.10
2012,04,07,00,31,4.10
2012,04,07,00,32,4.10
2012,04,07,00,33,4.10
2012,04,07,00,34,4.20
2012,04,07,00,35,4.20
2012,04,07,00,36,4.20
2012,04,07,00,37,4.20
2012,04,07,00,38,4.20
2012,04,07,00,39,4.20
2012,04,07,00,40,4.20
2012,04,07,00,41,4.20
2012,04,07,00,42,4.20
2012,04,07,00,43,4.20
2012,04,07,00,44,4.20
2012,04,07,00,45,4.10
2012,04,07,00,46,4.10
2012,04,07,00,47,4.10
2012,04,07,00,48,4.10
2012,04,07,00,49,4.10
2012,04,07,00,50,4.10
2012,04,07,00,51,4.10
2012,04,07,00,52,4.00
2012,04,07,00,53,4.00
2012,04,07,00,54,4.00
2012,04,07,00,55,4.00
2012,04,07,00,56,3.90
2012,04,07,00,57,3.90
2012,04,07,00,58,3.90
2012,04,07,00,59,3.90
2012,04,07,01,00,3.90
2012,04,07,01,01,3.90
2012,04,07,01,02,3.90
2012,04,07,01,03,3.80
2012,04,07,01,04,3.80
2012,04,07,01,05,3.80
2012,04,07,01,06,3.80
2012,04,07,01,07,3.80
2012,04,07,01,08,3.80
2012,04,07,01,09,3.80
2012,04,07,01,10,3.80
2012,04,07,01,11,3.80
2012,04,07,01,12,3.80
2012,04,07,01,13,3.70
2012,04,07,01,14,3.70
2012,04,07,01,15,3.70
2012,04,07,01,16,3.70
2012,04,07,01,17,3.70
2012,04,07,01,18,3.70
2012,04,07,01,19,3.70
2012,04,07,01,20,3.70
2012,04,07,01,21,3.70
2012,04,07,01,22,3.70
2012,04,07,01,23,3.60
2012,04,07,01,24,3.60
2012,04,07,01,25,3.60
2012,04,07,01,26,3.60
2012,04,07,01,27,3.60
2012,04,07,01,28,3.60
2012,04,07,01,29,3.60
2012,04,07,01,30,3.60
2012,04,07,01,31,3.50
2012,04,07,01,32,3.50
2012,04,07,01,33,3.50
2012,04,07,01,34,3.50
2012,04,07,01,35,3.50
2012,04,07,01,36,3.50
2012,04,07,01,37,3.50
2012,04,07,01,38,3.50
2012,04,07,01,39,3.50
2012,04,07,01,40,3.50
2012,04,07,01,41,3.50
2012,04,07,01,42,3.60
2012,04,07,01,43,3.60
2012,04,07,01,44,3.60
2012,04,07,01,45,3.60
2012,04,07,01,46,3.60
2012,04,07,01,47,3.60
2012,04,07,01,48,3.60
2012,04,07,01,49,3.60
2012,04,07,01,50,3.60
2012,04,07,01,51,3.60
2012,04,07,01,52,3.60
2012,04,07,01,53,3.60
2012,04,07,01,54,3.60
2012,04,07,01,55,3.60
2012,04,07,01,56,3.60
2012,04,07,01,57,3.60
2012,04,07,01,58,3.60
2012,04,07,01,59,3.60
2012,04,07,02,00,3.60
2012,04,07,02,01,3.60
2012,04,07,02,02,3.60
2012,04,07,02,03,3.60
2012,04,07,02,04,3.60
2012,04,07,02,05,3.60
2012,04,07,02,06,3.60
2012,04,07,02,07,3.50
2012,04,07,02,08,3.50
2012,04,07,02,09,3.40
2012,04,07,02,10,3.40
2012,04,07,02,11,3.40
2012,04,07,02,12,3.40
2012,04,07,02,13,3.30
2012,04,07,02,14,3.30
2012,04,07,02,15,3.30
2012,04,07,02,16,3.30
2012,04,07,02,17,3.20
2012,04,07,02,18,3.20
2012,04,07,02,19,3.20
2012,04,07,02,20,3.20
2012,04,07,02,21,3.20
2012,04,07,02,22,3.20
2012,04,07,02,23,3.20
2012,04,07,02,24,3.20
2012,04,07,02,25,3.10
2012,04,07,02,26,3.10
2012,04,07,02,27,3.10
2012,04,07,02,28,3.10
2012,04,07,02,29,3.10
2012,04,07,02,30,3.10
2012,04,07,02,31,3.10
2012,04,07,02,32,3.10
2012,04,07,02,33,3.10
2012,04,07,02,34,3.10
2012,04,07,02,35,3.10
2012,04,07,02,36,3.10
2012,04,07,02,37,3.10
2012,04,07,02,38,3.10
2012,04,07,02,39,3.10
2012,04,07,02,40,3.10
2012,04,07,02,41,3.10
2012,04,07,02,42,3.10
2012,04,07,02,43,3.00
2012,04,07,02,44,3.00
2012,04,07,02,45,3.00
2012,04,07,02,46,3.00
2012,04,07,02,47,3.00
2012,04,07,02,48,3.00
2012,04,07,02,49,3.00
2012,04,07,02,50,3.00
2012,04,07,02,51,3.00
2012,04,07,02,52,3.00
2012,04,07,02,53,3.00
2012,04,07,02,54,3.00
2012,04,07,02,55,3.00
2012,04,07,02,56,3.00
2012,04,07,02,57,3.00
2012,04,07,02,58,3.00
2012,04,07,02,59,3.00
2012,04,07,03,00,3.00
2012,04,07,03,01,3.10
2012,04,07,03,02,3.10
2012,04,07,03,03,3.20
2012,04,07,03,04,3.20
2012,04,07,03,05,3.20
2012,04,07,03,06,3.20
2012,04,07,03,07,3.20
2012,04,07,03,08,3.20
2012,04,07,03,09,3.20
2012,04,07,03,10,3.30
2012,04,07,03,11,3.30
2012,04,07,03,12,3.30
2012,04,07,03,13,3.40
2012,04,07,03,14,3.40
2012,04,07,03,15,3.40
2012,04,07,03,16,3.50
2012,04,07,03,17,3.50
2012,04,07,03,18,3.50
2012,04,07,03,19,3.60
2012,04,07,03,20,3.50
2012,04,07,03,21,3.60
2012,04,07,03,22,3.60
2012,04,07,03,23,3.60
2012,04,07,03,24,3.60
2012,04,07,03,25,3.70
2012,04,07,03,26,3.70
2012,04,07,03,27,3.70
2012,04,07,03,28,3.70
2012,04,07,03,29,3.70
2012,04,07,03,30,3.70
2012,04,07,03,31,3.70
2012,04,07,03,32,3.70
2012,04,07,03,33,3.70
2012,04,07,03,34,3.70
2012,04,07,03,35,3.70
2012,04,07,03,36,3.60
2012,04,07,03,37,3.60
2012,04,07,03,38,3.60
2012,04,07,03,39,3.60
2012,04,07,03,40,3.60
2012,04,07,03,41,3.60
2012,04,07,03,42,3.60
2012,04,07,03,43,3.60
2012,04,07,03,44,3.60
2012,04,07,03,45,3.60
2012,04,07,03,46,3.60
2012,04,07,03,47,3.60
2012,04,07,03,48,3.60
2012,04,07,03,49,3.50
2012,04,07,03,50,3.50
2012,04,07,03,51,3.50
2012,04,07,03,52,3.40
2012,04,07,03,53,3.40
2012,04,07,03,54,3.40
2012,04,07,03,55,3.30
2012,04,07,03,56,3.30
2012,04,07,03,57,3.30
2012,04,07,03,58,3.30
2012,04,07,03,59,3.30
2012,04,07,04,00,3.30
2012,04,07,04,01,3.30
2012,04,07,04,02,3.30
2012,04,07,04,03,3.30
2012,04,07,04,04,3.30
2012,04,07,04,05,3.30
2012,04,07,04,06,3.30
2012,04,07,04,07,3.30
2012,04,07,04,08,3.30
2012,04,07,04,09,3.30
2012,04,07,04,10,3.30
2012,04,07,04,11,3.30
2012,04,07,04,12,3.30
2012,04,07,04,13,3.30
2012,04,07,04,14,3.20
2012,04,07,04,15,3.20
2012,04,07,04,16,3.20
2012,04,07,04,17,3.20
2012,04,07,04,18,3.20
2012,04,07,04,19,3.20
2012,04,07,04,20,3.20
2012,04,07,04,21,3.20
2012,04,07,04,22,3.20
2012,04,07,04,23,3.20
2012,04,07,04,24,3.20
2012,04,07,04,25,3.20
2012,04,07,04,26,3.20
2012,04,07,04,27,3.20
2012,04,07,04,28,3.20
2012,04,07,04,29,3.20
2012,04,07,04,30,3.10
2012,04,07,04,31,3.10
2012,04,07,04,32,3.10
2012,04,07,04,33,3.10
2012,04,07,04,34,3.10
2012,04,07,04,35,3.10
2012,04,07,04,36,3.00
2012,04,07,04,37,3.00
2012,04,07,04,38,3.00
2012,04,07,04,39,3.00
2012,04,07,04,40,3.00
2012,04,07,04,41,2.90
2012,04,07,04,42,2.90
2012,04,07,04,43,2.90
2012,04,07,04,44,2.90
2012,04,07,04,45,2.90
2012,04,07,04,46,2.80
2012,04,07,04,47,2.80
2012,04,07,04,48,2.80
2012,04,07,04,49,2.80
2012,04,07,04,50,2.80
2012,04,07,04,51,2.80
2012,04,07,04,52,2.80
2012,04,07,04,53,2.80
2012,04,07,04,54,2.80
2012,04,07,04,55,2.80
2012,04,07,04,56,2.80
2012,04,07,04,57,2.80
2012,04,07,04,58,2.80
2012,04,07,04,59,2.80
2012,04,07,05,00,2.80
2012,04,07,05,01,2.80
2012,04,07,05,02,2.80
2012,04,07,05,03,2.80
2012,04,07,05,04,2.80
2012,04,07,05,05,2.70
2012,04,07,05,06,2.70
2012,04,07,05,07,2.70
2012,04,07,05,08,2.70
2012,04,07,05,09,2.70
2012,04,07,05,10,2.70
2012,04,07,05,11,2.70
2012,04,07,05,12,2.70
2012,04,07,05,13,2.70
2012,04,07,05,14,2.70
2012,04,07,05,15,2.70
2012,04,07,05,16,2.70
2012,04,07,05,17,2.70
2012,04,07,05,18,2.70
2012,04,07,05,19,2.70
2012,04,07,05,20,2.70
2012,04,07,05,21,2.70
2012,04,07,05,22,2.70
2012,04,07,05,23,2.70
2012,04,07,05,24,2.70
2012,04,07,05,25,2.70
2012,04,07,05,26,2.70
2012,04,07,05,27,2.70
2012,04,07,05,28,2.70
2012,04,07,05,29,2.70
2012,04,07,05,30,2.70
2012,04,07,05,31,2.70
2012,04,07,05,32,2.70
2012,04,07,05,33,2.70
2012,04,07,05,34,2.70
2012,04,07,05,35,2.70
2012,04,07,05,36,2.70
2012,04,07,05,37,2.70
2012,04,07,05,38,2.70
2012,04,07,05,39,2.70
2012,04,07,05,40,2.70
2012,04,07,05,41,2.70
2012,04,07,05,42,2.70
2012,04,07,05,43,2.60
2012,04,07,05,44,2.60
2012,04,07,05,45,2.60
2012,04,07,05,46,2.70
2012,04,07,05,47,2.60
2012,04,07,05,48,2.70
2012,04,07,05,49,2.60
2012,04,07,05,50,2.60
2012,04,07,05,51,2.60
2012,04,07,05,52,2.60
2012,04,07,05,53,2.60
2012,04,07,05,54,2.60
2012,04,07,05,55,2.60
2012,04,07,05,56,2.60
2012,04,07,05,57,2.60
2012,04,07,05,58,2.60
2012,04,07,05,59,2.60
2012,04,07,06,00,2.60
2012,04,07,06,01,2.60
2012,04,07,06,02,2.60
2012,04,07,06,03,2.60
2012,04,07,06,04,2.60
2012,04,07,06,05,2.60
2012,04,07,06,06,2.60
2012,04,07,06,07,2.60
2012,04,07,06,08,2.70
2012,04,07,06,09,2.70
2012,04,07,06,10,2.70
2012,04,07,06,11,2.70
2012,04,07,06,12,2.70
2012,04,07,06,13,2.70
2012,04,07,06,14,2.70
2012,04,07,06,15,2.80
2012,04,07,06,16,2.80
2012,04,07,06,17,2.80
2012,04,07,06,18,2.80
2012,04,07,06,19,2.80
2012,04,07,06,20,2.80
2012,04,07,06,21,2.80
2012,04,07,06,22,2.80
2012,04,07,06,23,2.80
2012,04,07,06,24,2.80
2012,04,07,06,25,2.90
2012,04,07,06,26,2.90
2012,04,07,06,27,2.90
2012,04,07,06,28,2.90
2012,04,07,06,29,2.90
2012,04,07,06,30,2.90
2012,04,07,06,31,2.90
2012,04,07,06,32,2.90
2012,04,07,06,33,2.90
2012,04,07,06,34,2.90
2012,04,07,06,35,3.00
2012,04,07,06,36,3.00
2012,04,07,06,37,3.00
2012,04,07,06,38,3.00
2012,04,07,06,39,3.00
2012,04,07,06,40,2.90
2012,04,07,06,41,2.90
2012,04,07,06,42,2.90
2012,04,07,06,43,2.90
2012,04,07,06,44,2.90
2012,04,07,06,45,2.90
2012,04,07,06,46,2.90
2012,04,07,06,47,3.00
2012,04,07,06,48,3.00
2012,04,07,06,49,3.00
2012,04,07,06,50,3.00
2012,04,07,06,51,3.00
2012,04,07,06,52,3.00
2012,04,07,06,53,3.00
2012,04,07,06,54,3.00
2012,04,07,06,55,3.00
2012,04,07,06,56,3.00
2012,04,07,06,57,3.00
2012,04,07,06,58,3.00
2012,04,07,06,59,3.00
2012,04,07,07,00,3.00
2012,04,07,07,01,3.00
2012,04,07,07,02,3.00
2012,04,07,07,03,3.00
2012,04,07,07,04,3.00
2012,04,07,07,05,3.00
2012,04,07,07,06,3.10
2012,04,07,07,07,3.10
2012,04,07,07,08,3.10
2012,04,07,07,09,3.10
2012,04,07,07,10,3.10
2012,04,07,07,11,3.10
2012,04,07,07,12,3.10
2012,04,07,07,13,3.10
2012,04,07,07,14,3.10
2012,04,07,07,15,3.10
2012,04,07,07,16,3.10
2012,04,07,07,17,3.10
2012,04,07,07,18,3.10
2012,04,07,07,19,3.10
2012,04,07,07,20,3.20
2012,04,07,07,21,3.20
2012,04,07,07,22,3.20
2012,04,07,07,23,3.20
2012,04,07,07,24,3.20
2012,04,07,07,25,3.20
2012,04,07,07,26,3.20
2012,04,07,07,27,3.20
2012,04,07,07,28,3.20
2012,04,07,07,29,3.20
2012,04,07,07,30,3.20
2012,04,07,07,31,3.20
2012,04,07,07,32,3.30
2012,04,07,07,33,3.30
2012,04,07,07,34,3.30
2012,04,07,07,35,3.30
2012,04,07,07,36,3.30
2012,04,07,07,37,3.30
2012,04,07,07,38,3.30
2012,04,07,07,39,3.40
2012,04,07,07,40,3.40
2012,04,07,07,41,3.40
2012,04,07,07,42,3.40
2012,04,07,07,43,3.40
2012,04,07,07,44,3.40
2012,04,07,07,45,3.40
2012,04,07,07,46,3.40
2012,04,07,07,47,3.40
2012,04,07,07,48,3.40
2012,04,07,07,49,3.40
2012,04,07,07,50,3.50
2012,04,07,07,51,3.50
2012,04,07,07,52,3.50
2012,04,07,07,53,3.60
2012,04,07,07,54,3.60
2012,04,07,07,55,3.60
2012,04,07,07,56,3.60
2012,04,07,07,57,3.70
2012,04,07,07,58,3.80
2012,04,07,07,59,3.80
2012,04,07,08,00,3.80
2012,04,07,08,01,3.90
2012,04,07,08,02,4.00
2012,04,07,08,03,4.00
2012,04,07,08,04,4.10
2012,04,07,08,05,4.10
2012,04,07,08,06,4.20
2012,04,07,08,07,4.20
2012,04,07,08,08,4.30
2012,04,07,08,09,4.30
2012,04,07,08,10,4.30
2012,04,07,08,11,4.40
2012,04,07,08,12,4.40
2012,04,07,08,13,4.50
2012,04,07,08,14,4.50
2012,04,07,08,15,4.60
2012,04,07,08,16,4.60
2012,04,07,08,17,4.70
2012,04,07,08,18,4.70
2012,04,07,08,19,4.70
2012,04,07,08,20,4.80
2012,04,07,08,21,4.80
2012,04,07,08,22,4.80
2012,04,07,08,23,4.90
2012,04,07,08,24,4.90
2012,04,07,08,25,4.90
2012,04,07,08,26,4.90
2012,04,07,08,27,4.90
2012,04,07,08,28,5.00
2012,04,07,08,29,5.00
2012,04,07,08,30,5.00
2012,04,07,08,31,5.00
2012,04,07,08,32,5.10
2012,04,07,08,33,5.10
2012,04,07,08,34,5.10
2012,04,07,08,35,5.10
2012,04,07,08,36,5.10
2012,04,07,08,37,5.10
2012,04,07,08,38,5.10
2012,04,07,08,39,5.10
2012,04,07,08,40,5.20
2012,04,07,08,41,5.20
2012,04,07,08,42,5.20
2012,04,07,08,43,5.20
2012,04,07,08,44,5.20
2012,04,07,08,45,5.20
2012,04,07,08,46,5.20
2012,04,07,08,47,5.20
2012,04,07,08,48,5.30
2012,04,07,08,49,5.30
2012,04,07,08,50,5.40
2012,04,07,08,51,5.50
2012,04,07,08,52,5.50
2012,04,07,08,53,5.60
2012,04,07,08,54,5.60
2012,04,07,08,55,5.70
2012,04,07,08,56,5.70
2012,04,07,08,57,5.70
2012,04,07,08,58,5.70
2012,04,07,08,59,5.80
2012,04,07,09,00,5.80
2012,04,07,09,01,5.80
2012,04,07,09,02,5.80
2012,04,07,09,03,5.80
2012,04,07,09,04,5.80
2012,04,07,09,05,5.90
2012,04,07,09,06,5.90
2012,04,07,09,07,5.90
2012,04,07,09,08,5.90
2012,04,07,09,09,6.00
2012,04,07,09,10,6.00
2012,04,07,09,11,6.10
2012,04,07,09,12,6.10
2012,04,07,09,13,6.10
2012,04,07,09,14,6.20
2012,04,07,09,15,6.20
2012,04,07,09,16,6.20
2012,04,07,09,17,6.20
2012,04,07,09,18,6.20
2012,04,07,09,19,6.20
2012,04,07,09,20,6.20
2012,04,07,09,21,6.20
2012,04,07,09,22,6.20
2012,04,07,09,23,6.20
2012,04,07,09,24,6.20
2012,04,07,09,25,6.20
2012,04,07,09,26,6.30
2012,04,07,09,27,6.30
2012,04,07,09,28,6.30
2012,04,07,09,29,6.30
2012,04,07,09,30,6.30
2012,04,07,09,31,6.40
2012,04,07,09,32,6.40
2012,04,07,09,33,6.40
2012,04,07,09,34,6.40
2012,04,07,09,35,6.40
2012,04,07,09,36,6.40
2012,04,07,09,37,6.40
2012,04,07,09,38,6.40
2012,04,07,09,39,6.50
2012,04,07,09,40,6.50
2012,04,07,09,41,6.50
2012,04,07,09,42,6.50
2012,04,07,09,43,6.50
2012,04,07,09,44,6.50
2012,04,07,09,45,6.50
2012,04,07,09,46,6.60
2012,04,07,09,47,6.60
2012,04,07,09,48,6.60
2012,04,07,09,49,6.70
2012,04,07,09,50,6.70
2012,04,07,09,51,6.80
2012,04,07,09,52,6.80
2012,04,07,09,53,6.80
2012,04,07,09,54,6.90
2012,04,07,09,55,6.90
2012,04,07,09,56,6.90
2012,04,07,09,57,7.00
2012,04,07,09,58,7.00
2012,04,07,09,59,6.90
2012,04,07,10,00,6.90
2012,04,07,10,01,6.90
2012,04,07,10,02,6.90
2012,04,07,10,03,7.00
2012,04,07,10,04,7.00
2012,04,07,10,05,7.00
2012,04,07,10,06,7.10
2012,04,07,10,07,7.10
2012,04,07,10,08,7.10
2012,04,07,10,09,7.10
2012,04,07,10,10,7.20
2012,04,07,10,11,7.20
2012,04,07,10,12,7.20
2012,04,07,10,13,7.20
2012,04,07,10,14,7.30
2012,04,07,10,15,7.40
2012,04,07,10,16,7.40
2012,04,07,10,17,7.50
2012,04,07,10,18,7.50
2012,04,07,10,19,7.50
2012,04,07,10,20,7.50
2012,04,07,10,21,7.60
2012,04,07,10,22,7.60
2012,04,07,10,23,7.60
2012,04,07,10,24,7.60
2012,04,07,10,25,7.60
2012,04,07,10,26,7.60
2012,04,07,10,27,7.70
2012,04,07,10,28,7.70
2012,04,07,10,29,7.70
2012,04,07,10,30,7.80
2012,04,07,10,31,7.90
2012,04,07,10,32,7.90
2012,04,07,10,33,7.90
2012,04,07,10,34,7.90
2012,04,07,10,35,7.90
2012,04,07,10,36,7.90
2012,04,07,10,37,7.90
2012,04,07,10,38,7.90
2012,04,07,10,39,7.90
2012,04,07,10,40,7.90
2012,04,07,10,41,7.80
2012,04,07,10,42,7.80
2012,04,07,10,43,7.80
2012,04,07,10,44,7.80
2012,04,07,10,45,7.90
2012,04,07,10,46,7.90
2012,04,07,10,47,8.00
2012,04,07,10,48,8.00
2012,04,07,10,49,8.00
2012,04,07,10,50,8.00
2012,04,07,10,51,7.90
2012,04,07,10,52,7.90
2012,04,07,10,53,7.80
2012,04,07,10,54,7.70
2012,04,07,10,55,7.70
2012,04,07,10,56,7.70
2012,04,07,10,57,7.70
2012,04,07,10,58,7.80
2012,04,07,10,59,7.90
2012,04,07,11,00,8.00
2012,04,07,11,01,8.10
2012,04,07,11,02,8.20
2012,04,07,11,03,8.20
2012,04,07,11,04,8.30
2012,04,07,11,05,8.30
2012,04,07,11,06,8.30
2012,04,07,11,07,8.30
2012,04,07,11,08,8.40
2012,04,07,11,09,8.40
2012,04,07,11,10,8.50
2012,04,07,11,11,8.50
2012,04,07,11,12,8.40
2012,04,07,11,13,8.40
2012,04,07,11,14,8.40
2012,04,07,11,15,8.40
2012,04,07,11,16,8.40
2012,04,07,11,17,8.30
2012,04,07,11,18,8.40
2012,04,07,11,19,8.40
2012,04,07,11,20,8.40
2012,04,07,11,21,8.50
2012,04,07,11,22,8.60
2012,04,07,11,23,8.60
2012,04,07,11,24,8.60
2012,04,07,11,25,8.60
2012,04,07,11,26,8.60
2012,04,07,11,27,8.60
2012,04,07,11,28,8.60
2012,04,07,11,29,8.70
2012,04,07,11,30,8.70
2012,04,07,11,31,8.70
2012,04,07,11,32,8.60
2012,04,07,11,33,8.60
2012,04,07,11,34,8.50
2012,04,07,11,35,8.60
2012,04,07,11,36,8.50
2012,04,07,11,37,8.50
2012,04,07,11,38,8.40
2012,04,07,11,39,8.40
2012,04,07,11,40,8.30
2012,04,07,11,41,8.30
2012,04,07,11,42,8.30
2012,04,07,11,43,8.30
2012,04,07,11,44,8.20
2012,04,07,11,45,8.30
2012,04,07,11,46,8.30
2012,04,07,11,47,8.40
2012,04,07,11,48,8.60
2012,04,07,11,49,8.70
2012,04,07,11,50,8.80
2012,04,07,11,51,8.80
2012,04,07,11,52,8.80
2012,04,07,11,53,8.80
2012,04,07,11,54,8.80
2012,04,07,11,55,8.90
2012,04,07,11,56,8.80
2012,04,07,11,57,8.80
2012,04,07,11,58,8.80
2012,04,07,11,59,8.80
2012,04,07,12,00,8.90
2012,04,07,12,01,8.90
2012,04,07,12,02,8.80
2012,04,07,12,03,8.90
2012,04,07,12,04,8.90
2012,04,07,12,05,8.90
2012,04,07,12,06,8.90
2012,04,07,12,07,8.90
2012,04,07,12,08,8.90
2012,04,07,12,09,8.90
2012,04,07,12,10,8.90
2012,04,07,12,11,9.00
2012,04,07,12,12,8.90
2012,04,07,12,13,9.00
2012,04,07,12,14,9.00
2012,04,07,12,15,9.00
2012,04,07,12,16,9.00
2012,04,07,12,17,9.00
2012,04,07,12,18,9.00
2012,04,07,12,19,9.10
2012,04,07,12,20,9.10
2012,04,07,12,21,9.20
2012,04,07,12,22,9.10
2012,04,07,12,23,9.10
2012,04,07,12,24,9.10
2012,04,07,12,25,9.20
2012,04,07,12,26,9.30
2012,04,07,12,27,9.40
2012,04,07,12,28,9.40
2012,04,07,12,29,9.40
2012,04,07,12,30,9.30
2012,04,07,12,31,9.30
2012,04,07,12,32,9.30
2012,04,07,12,33,9.20
2012,04,07,12,34,9.20
2012,04,07,12,35,9.20
2012,04,07,12,36,9.30
2012,04,07,12,37,9.30
2012,04,07,12,38,9.30
2012,04,07,12,39,9.30
2012,04,07,12,40,9.30
2012,04,07,12,41,9.30
2012,04,07,12,42,9.30
2012,04,07,12,43,9.40
2012,04,07,12,44,9.60
2012,04,07,12,45,9.70
2012,04,07,12,46,9.80
2012,04,07,12,47,9.80
2012,04,07,12,48,9.80
2012,04,07,12,49,9.80
2012,04,07,12,50,9.80
2012,04,07,12,51,9.80
2012,04,07,12,52,9.80
2012,04,07,12,53,9.70
2012,04,07,12,54,9.70
2012,04,07,12,55,9.60
2012,04,07,12,56,9.60
2012,04,07,12,57,9.60
2012,04,07,12,58,9.50
2012,04,07,12,59,9.60
2012,04,07,13,00,9.50
2012,04,07,13,01,9.50
2012,04,07,13,02,9.50
2012,04,07,13,03,9.40
2012,04,07,13,04,9.50
2012,04,07,13,05,9.60
2012,04,07,13,06,9.70
2012,04,07,13,07,9.80
2012,04,07,13,08,9.80
2012,04,07,13,09,9.90
2012,04,07,13,10,10.00
2012,04,07,13,11,10.10
2012,04,07,13,12,10.20
2012,04,07,13,13,10.20
2012,04,07,13,14,10.10
2012,04,07,13,15,10.10
2012,04,07,13,16,10.00
2012,04,07,13,17,10.00
2012,04,07,13,18,10.00
2012,04,07,13,19,9.90
2012,04,07,13,20,9.90
2012,04,07,13,21,9.90
2012,04,07,13,22,10.00
2012,04,07,13,23,10.10
2012,04,07,13,24,10.20
2012,04,07,13,25,10.20
2012,04,07,13,26,10.30
2012,04,07,13,27,10.20
2012,04,07,13,28,10.20
2012,04,07,13,29,10.20
2012,04,07,13,30,10.10
2012,04,07,13,31,10.00
2012,04,07,13,32,10.00
2012,04,07,13,33,10.00
2012,04,07,13,34,10.10
2012,04,07,13,35,10.20
2012,04,07,13,36,10.20
2012,04,07,13,37,10.20
2012,04,07,13,38,10.30
2012,04,07,13,39,10.40
2012,04,07,13,40,10.50
2012,04,07,13,41,10.50
2012,04,07,13,42,10.30
2012,04,07,13,43,10.30
2012,04,07,13,44,10.40
2012,04,07,13,45,10.40
2012,04,07,13,46,10.40
2012,04,07,13,47,10.40
2012,04,07,13,48,10.50
2012,04,07,13,49,10.50
2012,04,07,13,50,10.50
2012,04,07,13,51,10.40
2012,04,07,13,52,10.40
2012,04,07,13,53,10.40
2012,04,07,13,54,10.40
2012,04,07,13,55,10.40
2012,04,07,13,56,10.30
2012,04,07,13,57,10.40
2012,04,07,13,58,10.40
2012,04,07,13,59,10.50
2012,04,07,14,00,10.60
2012,04,07,14,01,10.60
2012,04,07,14,02,10.60
2012,04,07,14,03,10.60
2012,04,07,14,04,10.60
2012,04,07,14,05,10.60
2012,04,07,14,06,10.50
2012,04,07,14,07,10.50
2012,04,07,14,08,10.60
2012,04,07,14,09,10.80
2012,04,07,14,10,10.90
2012,04,07,14,11,10.90
2012,04,07,14,12,10.90
2012,04,07,14,13,10.90
2012,04,07,14,14,11.00
2012,04,07,14,15,11.00
2012,04,07,14,16,11.00
2012,04,07,14,17,10.90
2012,04,07,14,18,10.80
2012,04,07,14,19,10.70
2012,04,07,14,20,10.70
2012,04,07,14,21,10.70
2012,04,07,14,22,10.70
2012,04,07,14,23,10.70
2012,04,07,14,24,10.80
2012,04,07,14,25,10.80
2012,04,07,14,26,10.90
2012,04,07,14,27,10.90
2012,04,07,14,28,11.00
2012,04,07,14,29,11.10
2012,04,07,14,30,11.00
2012,04,07,14,31,11.00
2012,04,07,14,32,11.10
2012,04,07,14,33,11.00
2012,04,07,14,34,10.90
2012,04,07,14,35,11.00
2012,04,07,14,36,10.90
2012,04,07,14,37,10.80
2012,04,07,14,38,10.80
2012,04,07,14,39,10.70
2012,04,07,14,40,10.70
2012,04,07,14,41,10.80
2012,04,07,14,42,10.90
2012,04,07,14,43,11.00
2012,04,07,14,44,11.00
2012,04,07,14,45,11.10
2012,04,07,14,46,11.00
2012,04,07,14,47,11.00
2012,04,07,14,48,11.00
2012,04,07,14,49,11.10
2012,04,07,14,50,11.20
2012,04,07,14,51,11.20
2012,04,07,14,52,11.20
2012,04,07,14,53,11.20
2012,04,07,14,54,11.30
2012,04,07,14,55,11.30
2012,04,07,14,56,11.30
2012,04,07,14,57,11.40
2012,04,07,14,58,11.40
2012,04,07,14,59,11.30
2012,04,07,15,00,11.40
2012,04,07,15,01,11.40
2012,04,07,15,02,11.30
2012,04,07,15,03,11.30
2012,04,07,15,04,11.40
2012,04,07,15,05,11.30
2012,04,07,15,06,11.30
2012,04,07,15,07,11.30
2012,04,07,15,08,11.30
2012,04,07,15,09,11.30
2012,04,07,15,10,11.20
2012,04,07,15,11,11.20
2012,04,07,15,12,11.20
2012,04,07,15,13,11.20
2012,04,07,15,14,11.30
2012,04,07,15,15,11.30
2012,04,07,15,16,11.30
2012,04,07,15,17,11.30
2012,04,07,15,18,11.30
2012,04,07,15,19,11.30
2012,04,07,15,20,11.40
2012,04,07,15,21,11.50
2012,04,07,15,22,11.60
2012,04,07,15,23,11.60
2012,04,07,15,24,11.60
2012,04,07,15,25,11.60
2012,04,07,15,26,11.60
2012,04,07,15,27,11.60
2012,04,07,15,28,11.60
2012,04,07,15,29,11.50
2012,04,07,15,30,11.50
2012,04,07,15,31,11.50
2012,04,07,15,32,11.50
2012,04,07,15,33,11.50
2012,04,07,15,34,11.60
2012,04,07,15,35,11.60
2012,04,07,15,36,11.70
2012,04,07,15,37,11.70
2012,04,07,15,38,11.70
2012,04,07,15,39,11.60
2012,04,07,15,40,11.70
2012,04,07,15,41,11.70
2012,04,07,15,42,11.70
2012,04,07,15,43,11.80
2012,04,07,15,44,11.80
2012,04,07,15,45,11.80
2012,04,07,15,46,11.80
2012,04,07,15,47,11.80
2012,04,07,15,48,11.90
2012,04,07,15,49,12.00
2012,04,07,15,50,12.10
2012,04,07,15,51,12.10
2012,04,07,15,52,12.10
2012,04,07,15,53,12.10
2012,04,07,15,54,12.10
2012,04,07,15,55,12.10
2012,04,07,15,56,12.00
2012,04,07,15,57,12.00
2012,04,07,15,58,12.00
2012,04,07,15,59,12.10
2012,04,07,16,00,12.10
2012,04,07,16,01,12.10
2012,04,07,16,02,12.10
2012,04,07,16,03,12.10
2012,04,07,16,04,12.00
2012,04,07,16,05,12.00
2012,04,07,16,06,12.00
2012,04,07,16,07,12.00
2012,04,07,16,08,12.00
2012,04,07,16,09,12.10
2012,04,07,16,10,12.00
2012,04,07,16,11,12.10
2012,04,07,16,12,12.10
2012,04,07,16,13,12.10
2012,04,07,16,14,12.10
2012,04,07,16,15,12.10
2012,04,07,16,16,12.10
2012,04,07,16,17,12.10
2012,04,07,16,18,12.10
2012,04,07,16,19,12.10
2012,04,07,16,20,12.10
2012,04,07,16,21,12.10
2012,04,07,16,22,12.10
2012,04,07,16,23,12.10
2012,04,07,16,24,12.20
2012,04,07,16,25,12.20
2012,04,07,16,26,12.30
2012,04,07,16,27,12.30
2012,04,07,16,28,12.40
2012,04,07,16,29,12.40
2012,04,07,16,30,12.40
2012,04,07,16,31,12.40
2012,04,07,16,32,12.50
2012,04,07,16,33,12.60
2012,04,07,16,34,12.60
2012,04,07,16,35,12.60
2012,04,07,16,36,12.70
2012,04,07,16,37,12.70
2012,04,07,16,38,12.80
2012,04,07,16,39,12.70
2012,04,07,16,40,12.80
2012,04,07,16,41,12.70
2012,04,07,16,42,12.70
2012,04,07,16,43,12.70
2012,04,07,16,44,12.60
2012,04,07,16,45,12.60
2012,04,07,16,46,12.70
2012,04,07,16,47,12.70
2012,04,07,16,48,12.80
2012,04,07,16,49,12.90
2012,04,07,16,50,12.90
2012,04,07,16,51,12.90
2012,04,07,16,52,12.80
2012,04,07,16,53,12.80
2012,04,07,16,54,12.80
2012,04,07,16,55,12.70
2012,04,07,16,56,12.60
2012,04,07,16,57,12.50
2012,04,07,16,58,12.40
2012,04,07,16,59,12.40
2012,04,07,17,00,12.30
2012,04,07,17,01,12.30
2012,04,07,17,02,12.30
2012,04,07,17,03,12.30
2012,04,07,17,04,12.20
2012,04,07,17,05,12.10
2012,04,07,17,06,12.10
2012,04,07,17,07,12.10
2012,04,07,17,08,12.20
2012,04,07,17,09,12.20
2012,04,07,17,10,12.20
2012,04,07,17,11,12.20
2012,04,07,17,12,12.20
2012,04,07,17,13,12.20
2012,04,07,17,14,12.30
2012,04,07,17,15,12.30
2012,04,07,17,16,12.40
2012,04,07,17,17,12.40
2012,04,07,17,18,12.40
2012,04,07,17,19,12.40
2012,04,07,17,20,12.40
2012,04,07,17,21,12.40
2012,04,07,17,22,12.40
2012,04,07,17,23,12.40
2012,04,07,17,24,12.30
2012,04,07,17,25,12.30
2012,04,07,17,26,12.30
2012,04,07,17,27,12.20
2012,04,07,17,28,12.20
2012,04,07,17,29,12.20
2012,04,07,17,30,12.20
2012,04,07,17,31,12.10
2012,04,07,17,32,12.20
2012,04,07,17,33,12.20
2012,04,07,17,34,12.10
2012,04,07,17,35,12.10
2012,04,07,17,36,12.00
2012,04,07,17,37,12.00
2012,04,07,17,38,11.90
2012,04,07,17,39,11.90
2012,04,07,17,40,11.90
2012,04,07,17,41,11.90
2012,04,07,17,42,11.90
2012,04,07,17,43,12.00
2012,04,07,17,44,12.00
2012,04,07,17,45,12.00
2012,04,07,17,46,12.00
2012,04,07,17,47,12.10
2012,04,07,17,48,12.20
2012,04,07,17,49,12.20
2012,04,07,17,50,12.30
2012,04,07,17,51,12.30
2012,04,07,17,52,12.30
2012,04,07,17,53,12.30